User: anonymous   Login
Location: Fours
(44.3167°N, 6.7000°E)
Time: 16:56:51
(UTC+00:00)
Language:

TIANHUI 2-01B - Orbit

View from above orbital plane
View from above orbital plane
View from above satellite
View from above satellite

Ground track
Ground track

The orbit data is extracted from the following two-line orbital elements,

1 44209U 19024A   21172.69448124 -.00001335  00000-0 -64748-4 0  9993
2 44209  97.4538 177.9435 0001744  80.8175  53.9554 15.16753066118795
Epoch (UTC): 21 June 2021 16:40:03
Eccentricity: 0.0001744
inclination: 97.4538°
perigee height: 514 km
apogee height: 517 km
right ascension of ascending node: 177.9435°
argument of perigee: 80.8175°
revolutions per day: 15.16753066
mean anomaly at epoch: 53.9554°
orbit number at epoch: 11879

The dashed part of the orbit path shows where the satellite is in the earth's shadow,  

DLR